CW5988 Weather Reports


time (UTC)temp
F
wind
direction
speed
knots
gust
knots
rain 1hr
in
rain 24hr
in
rain mn
in
humidity
%
barometer
mb
20260503211924 61 256 7.0 13.0 0.00 0.00 0.00 70 1013.1
20260503211430 61 244 8.7 16.5 0.00 0.00 0.00 70 1013.0
20260503210937 62 202 9.6 16.5 0.00 0.00 0.00 68 1013.0
20260503210438 62 236 4.3 13.0 0.00 0.00 0.00 70 1012.9
20260503205952 62 284 6.1 11.3 0.00 0.00 0.00 70 1012.9
20260503205446 62 244 6.1 13.0 0.00 0.00 0.00 71 1012.8
20260503204931 62 227 5.2 13.0 0.00 0.00 0.00 71 1012.9
20260503204418 62 263 6.1 11.3 0.00 0.00 0.00 71 1012.9
20260503203924 61 212 5.2 13.0 0.00 0.00 0.00 72 1012.8
20260503203433 61 259 7.0 13.0 0.00 0.00 0.00 72 1012.9
20260503202918 61 212 4.3 11.3 0.00 0.00 0.00 73 1013.0
20260503202420 60 249 7.0 13.0 0.00 0.00 0.00 72 1013.0
20260503201926 61 228 6.1 11.3 0.00 0.00 0.00 73 1013.0
20260503201434 60 239 4.3 13.9 0.00 0.00 0.00 73 1013.1
20260503200922 60 244 5.2 13.9 0.00 0.00 0.00 73 1013.2
20260503200428 60 246 6.1 11.3 0.00 0.00 0.00 73 1013.1
20260503195933 61 205 5.2 11.3 0.00 0.00 0.00 72 1013.2
20260503195419 60 285 3.5 11.3 0.00 0.00 0.00 73 1013.2
20260503194942 60 302 4.3 11.3 0.00 0.00 0.00 73 1013.2
20260503194455 60 251 4.3 12.2 0.00 0.00 0.00 74 1013.3
20260503193922 60 294 6.1 12.2 0.00 0.00 0.00 74 1013.4
20260503193429 60 224 6.1 14.8 0.00 0.00 0.00 73 1013.3
20260503192934 60 284 7.8 14.8 0.00 0.00 0.00 72 1013.3
20260503192421 60 264 6.1 13.0 0.00 0.00 0.00 72 1013.4
20260503191927 61 261 5.2 13.0 0.00 0.00 0.00 71 1013.3
20260503191431 61 226 5.2 13.0 0.00 0.00 0.00 71 1013.3
20260503190937 61 280 3.5 16.5 0.00 0.00 0.00 72 1013.3
20260503190451 61 235 7.0 13.0 0.00 0.00 0.00 72 1013.4
20260503185926 61 171 6.1 13.0 0.00 0.00 0.00 72 1013.4
20260503185433 61 194 6.1 14.8 0.00 0.00 0.00 72 1013.4
20260503184916 61 224 7.0 14.8 0.00 0.00 0.00 72 1013.5
20260503184421 61 251 6.1 12.2 0.00 0.00 0.00 72 1013.4
20260503183923 61 233 4.3 10.4 0.00 0.00 0.00 73 1013.4
20260503183430 60 202 5.2 9.6 0.00 0.00 0.00 74 1013.4
20260503182935 60 290 4.3 10.4 0.00 0.00 0.00 74 1013.4
20260503182419 60 242 4.3 10.4 0.00 0.00 0.00 74 1013.3
20260503181926 59 234 4.3 11.3 0.00 0.00 0.00 75 1013.4
20260503181430 59 270 5.2 11.3 0.00 0.00 0.00 75 1013.3
20260503180933 59 275 4.3 12.2 0.00 0.00 0.00 76 1013.3
20260503180437 58 330 7.0 12.2 0.00 0.00 0.00 76 1013.4
20260503175920 58 339 6.1 11.3 0.00 0.00 0.00 77 1013.2
20260503175456 58 270 7.8 13.0 0.00 0.00 0.00 76 1013.3
20260503174949 58 282 7.0 13.9 0.00 0.00 0.00 77 1013.2
20260503174434 58 290 8.7 13.9 0.00 0.00 0.00 77 1013.2
20260503173919 58 339 5.2 10.4 0.00 0.00 0.00 77 1013.2
20260503173424 58 277 4.3 8.7 0.00 0.00 0.00 77 1013.2
20260503172925 58 268 3.5 8.7 0.00 0.00 0.00 77 1013.3
20260503172431 58 256 4.3 8.7 0.00 0.00 0.00 77 1013.2
20260503171949 58 193 4.3 11.3 0.00 0.00 0.00 77 1013.2
20260503171435 58 189 6.1 11.3 0.00 0.00 0.00 77 1013.2
20260503170942 58 193 4.3 10.4 0.00 0.00 0.00 77 1013.2
20260503170427 58 297 4.3 10.4 0.00 0.00 0.00 78 1013.2
20260503150927 55 45 0.9 5.2 0.00 0.00 0.00 81 1012.4
20260503150432 55 217 2.6 5.2 0.00 0.00 0.00 81 1012.4
20260503130954 54 218 2.6 5.2 0.00 0.00 0.00 81 1011.1
20260503130441 54 268 0.9 5.2 0.00 0.00 0.00 81 1011.0
20260503110418 54 284 2.6 7.8 0.00 0.00 0.00 83 1011.2
20260503090436 54 270 4.3 7.8 0.00 0.00 0.00 82 1011.6
20260503081434 54 205 1.7 7.0 0.00 0.00 0.00 83 1012.1
20260503080941 54 292 3.5 9.6 0.00 0.00 0.00 83 1012.1
20260503080424 54 251 5.2 10.4 0.00 0.00 0.00 83 1012.1
20260503072422 54 249 7.0 11.3 0.00 0.00 0.00 83 1012.1
20260503071926 54 270 6.1 9.6 0.00 0.00 0.00 83 1012.0
20260503071431 54 289 4.3 9.6 0.00 0.00 0.00 83 1012.0
20260503070918 54 263 2.6 7.8 0.00 0.00 0.00 83 1012.1
20260503070447 54 219 3.5 8.7 0.00 0.00 0.00 83 1012.1
20260503054927 55 256 3.5 9.6 0.00 0.00 0.00 82 1012.4
20260503054430 55 264 5.2 9.6 0.00 0.00 0.00 82 1012.4
20260503053919 55 273 4.3 8.7 0.00 0.00 0.00 82 1012.5
20260503053424 55 268 4.3 10.4 0.00 0.00 0.00 82 1012.6
20260503052930 55 278 5.2 10.4 0.00 0.00 0.00 82 1012.5
20260503052417 55 268 6.1 10.4 0.00 0.00 0.00 82 1012.5
20260503051944 55 268 4.3 13.9 0.00 0.00 0.00 82 1012.5
20260503051432 55 264 7.8 11.3 0.00 0.00 0.00 82 1012.6
20260503050936 55 285 6.1 10.4 0.00 0.00 0.00 82 1012.5
20260503050425 55 275 5.2 11.3 0.00 0.00 0.00 82 1012.4
20260503045933 55 306 6.1 12.2 0.00 0.00 0.00 82 1012.5
20260503045419 55 263 7.0 12.2 0.00 0.00 0.00 82 1012.5
20260503044928 55 280 7.0 12.2 0.00 0.00 0.00 82 1012.6
20260503044436 55 294 6.1 11.3 0.00 0.00 0.00 82 1012.4
20260503043953 55 273 6.1 10.4 0.00 0.00 0.00 82 1012.3
20260503043418 55 288 7.0 13.0 0.00 0.00 0.00 82 1012.2
20260503042919 55 268 7.8 13.9 0.00 0.00 0.00 82 1012.3
20260503042425 55 282 6.1 13.9 0.00 0.00 0.00 82 1012.3
20260503041932 55 273 5.2 10.4 0.00 0.00 0.00 82 1012.3
20260503041417 55 249 5.2 10.4 0.00 0.00 0.00 82 1012.3
20260503040923 55 280 6.1 13.9 0.00 0.00 0.00 82 1012.2
20260503040429 55 314 7.0 13.9 0.00 0.00 0.00 82 1012.3
20260503035936 55 270 7.0 13.0 0.00 0.00 0.00 82 1012.3
20260503035418 55 247 5.2 10.4 0.00 0.00 0.00 82 1012.2
20260503034927 55 273 4.3 8.7 0.00 0.00 0.00 82 1012.3
20260503034435 55 249 4.3 13.0 0.00 0.00 0.00 82 1012.2
20260503033953 55 222 2.6 11.3 0.00 0.00 0.00 82 1012.1
20260503033439 55 271 6.1 11.3 0.00 0.00 0.00 82 1012.0
20260503032954 55 280 5.2 12.2 0.00 0.00 0.00 82 1011.8
20260503032418 55 239 4.3 12.2 0.00 0.00 0.00 82 1011.8
20260503031942 55 225 7.0 12.2 0.00 0.00 0.00 82 1011.6
20260503031431 55 261 6.1 13.0 0.00 0.00 0.00 82 1011.5
20260503030938 55 254 7.0 14.8 0.00 0.00 0.00 82 1011.2
20260503030424 55 268 7.0 14.8 0.00 0.00 0.00 82 1011.2
20260503025931 55 349 7.0 13.0 0.00 0.00 0.00 82 1011.3
20260503025417 55 249 6.1 15.6 0.00 0.00 0.00 82 1011.2
20260503024923 55 295 7.8 15.6 0.00 0.00 0.00 82 1011.2
20260503024427 55 268 6.1 16.5 0.00 0.00 0.00 82 1011.2
20260503023936 55 224 7.8 16.5 0.00 0.00 0.00 82 1011.2
20260503023423 55 297 7.8 14.8 0.00 0.00 0.00 81 1011.2
20260503022929 55 295 5.2 12.2 0.00 0.00 0.00 81 1011.4
20260503022417 55 261 7.8 13.9 0.00 0.00 0.00 81 1011.3
20260503021943 55 295 8.7 13.9 0.00 0.00 0.00 81 1011.3
20260503021428 55 275 7.0 13.0 0.00 0.00 0.00 81 1011.3
20260503020930 55 247 6.1 12.2 0.00 0.00 0.00 81 1011.4
20260503020434 55 268 6.1 12.2 0.00 0.00 0.00 80 1011.4
20260503015920 56 282 5.2 12.2 0.00 0.00 0.00 80 1011.5
20260503015456 55 278 7.0 13.9 0.00 0.00 0.00 80 1011.4
20260503014920 55 270 6.1 14.8 0.00 0.00 0.00 80 1011.5
20260503014425 55 282 8.7 16.5 0.00 0.00 0.00 79 1011.6
20260503013931 56 320 7.0 15.6 0.00 0.00 0.00 79 1011.7
20260503013433 56 278 7.0 15.6 0.00 0.00 0.00 79 1011.7
20260503012918 56 293 7.0 15.6 0.00 0.00 0.00 79 1011.6
20260503012425 56 302 8.7 16.5 0.00 0.00 0.00 78 1011.7
20260503011931 56 253 7.8 16.5 0.00 0.00 0.00 78 1011.8
20260503011418 56 276 7.8 14.8 0.00 0.00 0.00 78 1011.8
20260503010923 56 294 5.2 15.6 0.00 0.00 0.00 78 1011.8
20260503010429 56 269 7.8 15.6 0.00 0.00 0.00 78 1011.8
20260503005931 57 308 7.0 13.0 0.00 0.00 0.00 78 1011.8
20260503005417 57 320 7.0 13.0 0.00 0.00 0.00 77 1011.8
20260503004924 57 297 4.3 13.0 0.00 0.00 0.00 77 1011.8
20260503004433 57 256 7.0 13.9 0.00 0.00 0.00 76 1011.8
20260503003919 57 254 7.0 13.9 0.00 0.00 0.00 76 1011.8
20260503003425 57 308 5.2 13.0 0.00 0.00 0.00 77 1011.9
20260503002930 57 261 5.2 13.0 0.00 0.00 0.00 76 1012.0
20260503002418 57 261 5.2 11.3 0.00 0.00 0.00 76 1012.0
20260503001920 57 240 3.5 11.3 0.00 0.00 0.00 76 1012.0
20260503001456 57 313 4.3 12.2 0.00 0.00 0.00 77 1012.1
20260503000952 57 298 8.7 12.2 0.00 0.00 0.00 76 1012.1
20260503000437 57 343 7.0 11.3 0.00 0.00 0.00 76 1012.1
20260502235952 58 316 6.1 11.3 0.00 0.00 0.00 76 1012.1
20260502235418 58 230 4.3 15.6 0.00 0.00 0.00 76 1012.1
20260502234941 58 252 5.2 15.6 0.00 0.00 0.00 75 1012.1
20260502234428 58 306 7.0 12.2 0.00 0.00 0.00 75 1012.2
20260502233935 58 268 5.2 12.2 0.00 0.00 0.00 75 1012.2
20260502233421 58 292 5.2 10.4 0.00 0.00 0.00 75 1012.2
20260502232928 58 261 4.3 13.0 0.00 0.00 0.00 75 1012.3
20260502232434 58 219 7.8 13.0 0.00 0.00 0.00 74 1012.3
20260502231921 58 221 7.0 12.2 0.00 0.00 0.00 74 1012.4
20260502231428 58 224 5.2 11.3 0.00 0.00 0.00 74 1012.4
20260502230930 58 256 6.1 12.2 0.00 0.00 0.00 74 1012.5
20260502230435 59 221 6.1 12.2 0.00 0.00 0.00 74 1012.4
20260502225936 59 268 5.2 12.2 0.00 0.00 0.00 74 1012.6
20260502225426 59 234 4.3 9.6 0.00 0.00 0.00 74 1012.7
20260502224933 60 256 3.5 10.4 0.00 0.00 0.00 74 1012.7
20260502224421 59 186 3.5 11.3 0.00 0.00 0.00 75 1012.7
20260502223931 58 309 4.3 11.3 0.00 0.00 0.00 75 1012.8
20260502223432 58 229 4.3 13.9 0.00 0.00 0.00 76 1012.9
20260502222939 58 252 7.0 13.0 0.00 0.00 0.00 75 1013.1
20260502222445 58 242 6.1 13.9 0.00 0.00 0.00 76 1013.2
20260502221931 58 289 4.3 11.3 0.00 0.00 0.00 76 1013.2
20260502221417 58 294 5.2 13.9 0.00 0.00 0.00 75 1013.2
20260502220923 58 206 3.5 13.9 0.00 0.00 0.00 75 1013.4
20260502220446 58 255 7.0 12.2 0.00 0.00 0.00 75 1013.5
20260502215930 58 275 3.5 9.6 0.00 0.00 0.00 75 1013.4
20260502215436 58 292 4.3 9.6 0.00 0.00 0.00 75 1013.4
20260502214922 58 284 3.5 7.0 0.00 0.00 0.00 75 1013.5
20260502214428 57 282 3.5 12.2 0.00 0.00 0.00 76 1013.5
20260502213936 57 287 4.3 11.3 0.00 0.00 0.00 75 1013.6
20260502213424 58 237 4.3 10.4 0.00 0.00 0.00 75 1013.5
20260502212930 58 273 5.2 10.4 0.00 0.00 0.00 74 1013.6
20260502212433 58 222 4.3 11.3 0.00 0.00 0.00 75 1013.5